User: anonymous   Login
Location: Zlin
(49.2330°N, 17.6670°E)
Time: 06:53:26
(UTC+01:00)
Language:

ISS - Orbit

View from above orbital plane
View from above orbital plane
View from above satellite
View from above satellite

Ground track
Ground track

The orbit data is extracted from the following two-line orbital elements,

1 25544U 98067A   16044.94981727  .00015478  00000-0  23550-3 0  9995
2 25544  51.6432 317.5840 0006906 112.2880 359.0801 15.54702009985656
Epoch (UTC): 13 February 2016 22:47:44
Eccentricity: 0.0006906
inclination: 51.6432°
perigee height: 398 km
apogee height: 408 km
right ascension of ascending node: 317.5840°
argument of perigee: 112.2880°
revolutions per day: 15.54702009
mean anomaly at epoch: 359.0801°
orbit number at epoch: 98565

The dashed part of the orbit path shows where the satellite is in the earth's shadow,  

DLR